• In India
  • List of Countries
  • For 7 days
  • Water Temperature
  • Satellite Maps
  • Weather Map
  • Weather Widgets
  • user-avatar
    Login

    Hourly Weather Zalizne

    Today, 13 November, Tuesday

    Time Temperature Precipitation Wind Pressure Humidity
    00:00 -3°C° 0 mm 4 mps 761 mmHg 58%
    01:00 -3°C° 0 mm 4 mps 761 mmHg 58%
    02:00 -4°C° 0 mm 4 mps 761 mmHg 57%
    03:00 -4°C° 0 mm 4 mps 761 mmHg 56%
    04:00 -4°C° 0 mm 4 mps 761 mmHg 55%
    05:00 -4°C° 0 mm 4 mps 761 mmHg 54%
    06:00 -4°C° 0 mm 4 mps 761 mmHg 54%
    07:00 -5°C° 0 mm 4 mps 761 mmHg 54%
    08:00 -5°C° 0 mm 4 mps 761 mmHg 54%
    09:00 -4°C° 0 mm 4 mps 761 mmHg 52%
    10:00 -3°C° 0 mm 4 mps 761 mmHg 49%
    11:00 -2°C° 0 mm 4 mps 761 mmHg 47%
    12:00 -1°C° 0 mm 4 mps 760 mmHg 46%
    13:00 -1°C° 0 mm 4 mps 760 mmHg 46%
    14:00 0°C° 0 mm 4 mps 760 mmHg 45%
    15:00 -1°C° 0 mm 4 mps 759 mmHg 49%
    16:00 -1°C° 0 mm 3 mps 759 mmHg 53%
    17:00 -2°C° 0 mm 3 mps 759 mmHg 57%
    18:00 -2°C° 0 mm 3 mps 759 mmHg 58%
    19:00 -3°C° 0 mm 4 mps 759 mmHg 58%
    20:00 -4°C° 0 mm 4 mps 758 mmHg 59%
    21:00 -4°C° 0 mm 4 mps 758 mmHg 59%
    22:00 -4°C° 0 mm 4 mps 758 mmHg 59%
    23:00 -4°C° 0 mm 4 mps 757 mmHg 58%

    Tomorrow, 14 November, Wednesday

    Time Temperature Precipitation Wind Pressure Humidity
    00:00 -4°C° 0 mm 4 mps 757 mmHg 58%
    01:00 -4°C° 0 mm 4 mps 756 mmHg 58%
    02:00 -4°C° 0 mm 4 mps 756 mmHg 57%
    03:00 -4°C° 0 mm 4 mps 755 mmHg 57%
    04:00 -4°C° 0 mm 4 mps 755 mmHg 57%
    05:00 -5°C° 0 mm 5 mps 754 mmHg 57%
    06:00 -5°C° 0 mm 5 mps 754 mmHg 57%
    07:00 -4°C° 0 mm 5 mps 754 mmHg 57%
    08:00 -4°C° 0 mm 5 mps 753 mmHg 57%
    09:00 -4°C° 0.4 mm 5 mps 753 mmHg 61%
    10:00 -2°C° 0.4 mm 5 mps 753 mmHg 65%
    11:00 -2°C° 0.4 mm 5 mps 753 mmHg 70%
    12:00 -2°C° 0.7 mm 5 mps 752 mmHg 75%
    13:00 -2°C° 0.7 mm 4 mps 752 mmHg 81%
    14:00 -2°C° 0.7 mm 4 mps 752 mmHg 87%
    15:00 -2°C° 0.5 mm 4 mps 751 mmHg 89%
    16:00 -1°C° 0.5 mm 3 mps 751 mmHg 92%
    17:00 -1°C° 0.5 mm 3 mps 751 mmHg 95%
    18:00 -1°C° 0.4 mm 3 mps 751 mmHg 95%
    19:00 -1°C° 0.4 mm 2 mps 751 mmHg 96%
    20:00 -1°C° 0.4 mm 2 mps 751 mmHg 96%
    21:00 -1°C° 0.2 mm 2 mps 751 mmHg 96%
    22:00 -1°C° 0.2 mm 2 mps 751 mmHg 97%
    23:00 -1°C° 0.2 mm 2 mps 751 mmHg 97%

    Day after tomorrow, 15 November, Thursday

    Time Temperature Precipitation Wind Pressure Humidity
    00:00 +1°C° 0.2 mm 2 mps 751 mmHg 97%
    01:00 +1°C° 0.2 mm 2 mps 751 mmHg 97%
    02:00 +1°C° 0.2 mm 2 mps 751 mmHg 97%
    03:00 -1°C° 0.1 mm 2 mps 751 mmHg 97%
    04:00 -1°C° 0.1 mm 2 mps 752 mmHg 97%
    05:00 -1°C° 0.1 mm 2 mps 752 mmHg 97%
    06:00 -1°C° 0 mm 2 mps 752 mmHg 97%
    07:00 -1°C° 0 mm 2 mps 753 mmHg 96%
    08:00 -1°C° 0 mm 3 mps 753 mmHg 96%
    09:00 0°C° 0 mm 3 mps 754 mmHg 96%
    10:00 0°C° 0 mm 3 mps 754 mmHg 96%
    11:00 +1°C° 0 mm 3 mps 754 mmHg 97%
    12:00 +1°C° 0 mm 3 mps 755 mmHg 96%
    13:00 +1°C° 0 mm 3 mps 755 mmHg 95%
    14:00 +1°C° 0 mm 3 mps 755 mmHg 95%
    15:00 0°C° 0 mm 3 mps 756 mmHg 94%
    16:00 0°C° 0 mm 3 mps 756 mmHg 93%
    17:00 -1°C° 0 mm 3 mps 756 mmHg 92%
    18:00 -1°C° 0 mm 3 mps 757 mmHg 91%
    19:00 -2°C° 0 mm 3 mps 757 mmHg 90%
    20:00 -2°C° 0 mm 3 mps 758 mmHg 90%
    21:00 -2°C° 0 mm 3 mps 758 mmHg 90%
    22:00 -4°C° 0 mm 3 mps 758 mmHg 89%
    23:00 -3°C° 0 mm 2 mps 759 mmHg 89%

    16 November, Friday

    Time Temperature Precipitation Wind Pressure Humidity
    00:00 -4°C° 0 mm 3 mps 759 mmHg 89%
    01:00 -5°C° 0 mm 3 mps 759 mmHg 88%
    02:00 -5°C° 0 mm 3 mps 759 mmHg 88%
    03:00 -5°C° 0 mm 3 mps 759 mmHg 88%
    04:00 -5°C° 0 mm 3 mps 759 mmHg 87%
    05:00 -6°C° 0 mm 3 mps 759 mmHg 87%
    06:00 -6°C° 0 mm 3 mps 760 mmHg 86%
    07:00 -6°C° 0 mm 3 mps 760 mmHg 86%
    08:00 -6°C° 0 mm 3 mps 760 mmHg 85%
    09:00 -5°C° 0 mm 4 mps 760 mmHg 81%
    10:00 -4°C° 0 mm 4 mps 760 mmHg 77%
    11:00 -3°C° 0 mm 4 mps 761 mmHg 73%
    12:00 -3°C° 0 mm 4 mps 760 mmHg 72%
    13:00 -2°C° 0 mm 4 mps 760 mmHg 71%
    14:00 -2°C° 0 mm 4 mps 760 mmHg 71%
    15:00 -3°C° 0 mm 4 mps 760 mmHg 73%
    16:00 -4°C° 0 mm 4 mps 760 mmHg 75%
    17:00 -4°C° 0 mm 4 mps 760 mmHg 78%
    18:00 -5°C° 0 mm 4 mps 761 mmHg 76%
    19:00 -5°C° 0 mm 4 mps 761 mmHg 74%
    20:00 -5°C° 0 mm 4 mps 761 mmHg 73%
    21:00 -5°C° 0 mm 3 mps 761 mmHg 72%
    22:00 -6°C° 0 mm 3 mps 761 mmHg 70%
    23:00 -6°C° 0 mm 3 mps 761 mmHg 69%

    17 November, Saturday

    Time Temperature Precipitation Wind Pressure Humidity
    00:00 -6°C° 0 mm 3 mps 761 mmHg 69%
    01:00 -6°C° 0 mm 3 mps 761 mmHg 69%
    02:00 -6°C° 0 mm 3 mps 761 mmHg 68%
    03:00 -6°C° 0 mm 3 mps 761 mmHg 68%
    04:00 -6°C° 0 mm 3 mps 761 mmHg 68%
    05:00 -7°C° 0 mm 3 mps 761 mmHg 67%
    06:00 -7°C° 0 mm 3 mps 761 mmHg 67%
    07:00 -6°C° 0 mm 3 mps 761 mmHg 66%
    08:00 -6°C° 0 mm 3 mps 761 mmHg 65%
    09:00 -5°C° 0 mm 3 mps 761 mmHg 62%
    10:00 -4°C° 0 mm 3 mps 762 mmHg 58%
    11:00 -2°C° 0 mm 3 mps 762 mmHg 55%
    12:00 -2°C° 0 mm 3 mps 761 mmHg 56%
    13:00 -1°C° 0 mm 3 mps 761 mmHg 56%
    14:00 -1°C° 0 mm 3 mps 761 mmHg 57%
    15:00 -2°C° 0 mm 3 mps 761 mmHg 61%
    16:00 -4°C° 0 mm 3 mps 761 mmHg 65%
    17:00 -5°C° 0 mm 3 mps 761 mmHg 68%
    18:00 -5°C° 0 mm 3 mps 760 mmHg 69%
    19:00 -5°C° 0 mm 2 mps 760 mmHg 69%
    20:00 -5°C° 0 mm 2 mps 760 mmHg 70%
    21:00 -5°C° 0 mm 2 mps 760 mmHg 70%
    22:00 -5°C° 0 mm 2 mps 760 mmHg 70%
    23:00 -5°C° 0 mm 2 mps 760 mmHg 70%

    18 November, Sunday

    Time Temperature Precipitation Wind Pressure Humidity
    00:00 -5°C° 0 mm 2 mps 759 mmHg 70%
    01:00 -5°C° 0 mm 2 mps 759 mmHg 70%
    02:00 -5°C° 0 mm 2 mps 758 mmHg 70%
    03:00 -5°C° 0 mm 2 mps 758 mmHg 71%
    04:00 -6°C° 0 mm 3 mps 757 mmHg 71%
    05:00 -6°C° 0 mm 3 mps 756 mmHg 72%
    06:00 -5°C° 0 mm 3 mps 756 mmHg 73%
    07:00 -5°C° 0 mm 4 mps 755 mmHg 75%
    08:00 -5°C° 0 mm 4 mps 754 mmHg 76%
    09:00 -4°C° 0 mm 4 mps 754 mmHg 77%
    10:00 -4°C° 0 mm 5 mps 753 mmHg 77%
    11:00 -2°C° 0 mm 5 mps 752 mmHg 78%
    12:00 -1°C° 0.1 mm 5 mps 751 mmHg 79%
    13:00 -1°C° 0.1 mm 5 mps 750 mmHg 80%
    14:00 -1°C° 0.1 mm 5 mps 749 mmHg 81%
    15:00 -1°C° 0.3 mm 5 mps 749 mmHg 83%
    16:00 -1°C° 0.3 mm 5 mps 748 mmHg 86%
    17:00 -1°C° 0.3 mm 5 mps 747 mmHg 89%
    18:00 -1°C° 0.3 mm 4 mps 747 mmHg 90%
    19:00 -1°C° 0.3 mm 4 mps 746 mmHg 92%
    20:00 -1°C° 0.3 mm 4 mps 746 mmHg 94%
    21:00 0°C° 0.1 mm 3 mps 745 mmHg 95%
    22:00 0°C° 0.1 mm 3 mps 745 mmHg 96%
    23:00 0°C° 0.1 mm 3 mps 745 mmHg 97%
    Show more